Total_Precipitation_Accumulation
4.61 4.74 4.78 4.88 4.50 4.53 4.77 5.05 4.77 4.86 4.97 4.57 3.92 3.57 3.56 3.57 3.54 3.71 4.08 4.09 3.74 3.81 4.68 5.21 5.06 4.67 4.17 3.69 3.47 3.32 3.29 3.13 2.89 2.51 2.34 2.40 2.33 2.29 2.16 1.91 1.77 1.51 1.23
4.89 4.96 4.93 4.94 4.50 4.33 4.64 4.94 4.86 5.39 5.39 5.21 4.44 3.94 3.73 3.70 3.66 3.72 4.09 4.33 4.18 4.09 4.60 5.30 5.57 5.51 5.08 4.54 4.10 3.72 3.65 3.57 3.32 2.79 2.49 2.53 2.54 2.43 2.31 2.11 1.83 1.57 1.32
5.10 4.93 4.92 4.75 4.58 4.49 4.67 4.86 5.04 5.42 5.15 5.08 4.87 4.42 4.13 3.88 3.67 3.85 4.26 4.68 4.25 4.15 4.58 5.21 5.68 5.68 5.53 5.33 4.84 4.38 3.96 3.68 3.51 3.11 2.69 2.48 2.46 2.31 2.19 2.10 1.94 1.69 1.38
4.96 5.16 4.93 4.64 4.68 4.64 4.93 5.37 5.42 5.47 5.58 5.49 5.19 4.81 4.51 4.34 3.81 3.85 4.04 4.26 4.46 3.85 4.33 5.19 5.55 5.31 5.42 5.70 5.70 5.44 4.84 4.16 3.78 3.42 3.00 2.66 2.52 2.36 2.20 2.13 2.04 1.82 1.52
4.57 5.18 5.14 5.14 5.01 5.22 5.20 4.86 5.58 5.75 5.73 5.71 4.97 4.79 4.24 4.13 4.04 3.80 3.90 3.93 4.16 4.11 4.17 4.29 4.92 4.83 5.16 5.83 6.28 6.42 6.05 5.31 4.57 4.05 3.58 3.19 2.96 2.66 2.37 2.20 2.10 1.86 1.59
4.58 5.04 5.00 5.03 5.16 5.62 5.76 5.60 5.89 5.74 5.56 5.63 4.71 4.43 4.07 3.65 3.57 3.54 3.34 3.58 3.68 3.38 3.59 3.92 4.34 3.79 4.13 4.69 5.35 6.18 6.67 6.63 5.89 4.99 4.48 4.10 3.82 3.31 2.70 2.32 2.08 1.90 1.73
4.40 4.94 4.83 5.37 5.28 5.44 5.59 5.47 5.68 5.51 5.26 5.34 5.33 4.71 3.99 3.50 3.35 3.12 3.09 3.32 3.26 3.28 3.66 4.20 4.51 4.40 3.94 3.77 4.03 4.97 6.17 6.89 6.66 5.83 5.29 4.90 4.60 4.04 3.23 2.74 2.28 1.95 1.80
4.09 4.27 4.97 5.01 5.10 5.33 5.36 5.32 5.38 5.08 4.76 5.17 5.52 5.38 4.56 4.09 3.56 2.88 3.08 3.14 3.27 3.55 3.55 3.66 4.21 4.60 4.31 4.29 3.72 3.72 5.04 6.31 6.91 6.67 6.30 5.89 5.41 4.61 3.84 3.28 2.67 2.20 1.97
4.06 4.29 4.69 4.79 4.91 4.80 5.04 5.27 5.09 5.04 4.96 5.03 5.27 5.62 5.11 4.40 3.77 3.29 3.07 3.10 3.42 3.71 3.59 3.53 3.47 3.70 3.76 4.29 4.37 3.73 3.90 4.40 5.39 6.67 7.16 6.99 6.13 4.87 4.07 3.64 3.17 2.64 2.21
3.82 3.94 4.23 4.51 4.70 4.62 4.83 4.63 4.72 4.94 5.09 4.94 5.07 4.97 4.92 4.64 4.42 3.84 3.33 3.16 3.37 3.45 3.41 3.13 3.07 3.41 3.59 4.07 4.23 3.56 3.20 3.19 3.65 5.00 6.32 6.65 6.19 5.14 4.29 4.00 3.97 3.55 2.83
3.67 3.63 3.86 4.15 4.31 4.27 4.34 4.58 4.98 4.89 4.86 4.77 4.95 5.07 5.22 4.93 4.50 4.23 3.82 3.58 3.36 2.96 2.96 3.01 2.95 3.03 3.29 3.77 3.99 3.38 3.24 2.95 2.82 3.24 4.13 4.88 5.26 5.04 4.51 4.32 4.60 4.62 4.14
3.58 3.53 3.62 3.99 4.08 4.03 4.04 4.28 4.47 4.52 4.56 4.69 4.71 4.66 4.92 4.92 4.69 4.67 4.16 3.77 3.46 2.90 2.73 2.74 2.79 2.89 3.03 3.35 3.16 3.04 3.13 2.90 2.61 2.54 2.84 3.45 4.06 4.42 4.36 4.45 4.81 5.16 5.22
3.42 3.45 3.42 3.60 3.55 3.57 3.76 4.11 4.12 4.01 4.07 4.23 4.21 4.32 4.31 4.18 4.32 4.45 4.32 3.76 3.36 2.80 2.68 2.52 2.48 2.77 2.82 3.23 3.32 3.12 2.91 2.75 2.52 2.42 2.50 2.68 3.08 3.49 3.86 4.14 4.62 5.06 5.33
3.28 3.22 3.09 3.05 3.06 3.19 3.30 3.78 3.82 3.72 3.85 3.85 3.73 4.14 3.96 3.72 3.98 3.99 4.04 4.19 3.82 3.37 3.25 2.95 2.50 2.52 2.73 2.98 3.19 3.04 2.58 2.58 2.39 2.30 2.26 2.31 2.48 2.70 2.99 3.28 3.67 3.99 4.24
2.82 3.02 2.94 2.78 2.75 2.92 3.10 3.30 3.37 3.41 3.59 3.54 3.61 3.74 3.46 3.37 3.51 3.58 3.81 4.15 4.25 3.88 3.67 3.43 2.87 2.52 2.55 2.82 3.19 2.80 2.66 2.60 2.38 2.26 2.12 2.03 2.03 2.11 2.22 2.39 2.64 2.89 3.01
2.74 2.76 2.76 2.66 2.62 2.64 2.74 3.00 3.00 3.15 3.24 3.26 3.41 3.43 3.35 3.21 3.35 3.32 3.41 3.70 3.98 4.02 3.71 3.30 2.94 2.53 2.62 2.54 2.86 2.74 2.75 2.73 2.40 2.16 1.95 1.85 1.85 1.87 1.96 2.04 2.11 2.28 2.38
2.78 2.76 2.75 2.75 2.63 2.54 2.66 2.81 2.64 2.86 2.90 2.94 2.89 2.91 2.96 3.20 3.33 3.24 3.33 3.40 3.69 4.01 3.86 3.53 3.19 2.93 2.85 2.83 2.69 2.63 2.50 2.38 2.17 2.04 1.80 1.71 1.70 1.71 1.75 1.82 1.92 2.07 2.21
2.40 2.42 2.38 2.39 2.41 2.59 2.77 2.70 2.64 2.72 2.78 2.67 2.73 2.90 2.74 2.98 3.16 3.07 3.19 3.22 3.43 3.82 3.94 4.02 3.88 3.54 3.28 3.12 3.05 2.82 2.35 2.13 2.17 2.16 1.95 1.78 1.68 1.64 1.61 1.64 1.75 1.92 2.07
2.37 2.34 2.34 2.31 2.31 2.54 2.71 2.63 2.67 2.76 2.77 2.62 2.74 2.76 2.61 2.79 2.85 2.94 3.01 3.06 3.28 3.55 3.90 3.81 3.77 3.69 3.52 3.23 3.34 2.98 2.63 2.57 2.12 2.08 2.03 1.85 1.74 1.67 1.62 1.63 1.70 1.77 1.87
2.46 2.55 2.58 2.48 2.48 2.37 2.37 2.53 2.69 2.67 2.63 2.53 2.57 2.51 2.40 2.42 2.52 2.79 2.86 2.99 3.24 3.49 3.71 3.63 3.63 3.74 3.82 3.79 3.77 3.42 3.20 2.96 2.56 2.09 2.14 1.98 1.91 1.78 1.63 1.55 1.57 1.65 1.80
2.46 2.70 2.72 2.67 2.63 2.43 2.23 2.38 2.52 2.40 2.41 2.37 2.36 2.21 2.05 2.14 2.31 2.43 2.31 2.71 3.13 3.28 3.33 3.38 3.44 3.64 3.77 4.03 3.77 3.60 3.50 3.45 3.12 2.61 2.57 2.20 2.06 1.83 1.65 1.56 1.55 1.54 1.58
2.65 2.70 2.62 2.59 2.47 2.11 2.20 2.15 2.09 2.13 2.19 2.21 2.25 2.23 2.11 2.02 1.99 2.04 2.02 2.23 2.62 2.80 2.99 3.27 3.37 3.54 3.60 3.58 3.75 3.72 3.68 3.55 3.23 2.88 2.89 2.81 2.66 2.49 2.18 1.77 1.66 1.50 1.41
2.53 2.45 2.41 2.41 2.33 2.24 2.09 1.80 1.73 1.88 2.08 2.17 2.23 2.28 1.99 1.83 1.92 1.80 1.90 1.99 2.04 2.13 2.33 2.76 3.04 3.10 3.18 3.19 3.49 3.54 3.55 3.42 3.31 3.15 3.20 3.15 3.05 2.80 2.33 2.12 2.04 1.73 1.57
2.34 2.32 2.20 2.20 2.29 2.18 2.12 1.84 1.72 1.69 1.89 1.93 1.92 1.97 2.03 2.01 1.92 2.00 1.99 1.94 1.79 1.81 1.95 1.96 2.12 2.37 2.66 2.95 3.15 3.31 3.61 3.57 3.49 3.38 3.30 3.34 3.19 3.03 2.60 2.32 2.22 1.95 1.82
2.25 2.26 2.23 2.25 2.26 2.19 2.16 1.94 1.90 1.82 1.90 1.87 1.89 1.93 2.03 2.08 2.16 2.10 2.06 2.06 1.98 1.90 1.84 1.83 1.77 1.88 2.07 2.25 2.47 2.77 3.13 3.46 3.60 3.56 3.35 3.40 3.32 3.35 3.26 2.83 2.44 2.28 2.01
2.33 2.37 2.37 2.33 2.19 2.14 2.07 1.89 1.92 1.89 2.09 2.16 2.22 2.18 2.08 1.93 1.97 1.92 1.90 1.98 1.94 1.89 1.81 1.77 1.70 1.65 1.63 1.79 2.04 2.26 2.60 3.03 3.27 3.40 3.32 3.45 3.58 3.94 4.08 3.48 2.86 2.48 2.26